Location: Degersen
(52.2871°N, 9.5716°E)
Time: 20:13:02
(UTC+00:00)

Cosmos 921 Rocket - Pass Details

Date: 20 January 2026
Orbit: 564 x 620 km, 75.8° (Epoch: 16 February)

Event Time Altitude Azimuth Distance (km) Brightness Sun altitude
Exits shadow 05:41:03 22° 308° (NW) 1,275 4.1 -14.5°
Drops below altitude 10° 05:44:20 10° 359° (N) 1,892 5.4 -14.1°
Sets 05:46:56 0° 15° (NNE) 2,787 6.4 -13.7°
